Location: Zagreb
(45.8000°N, 16.0000°E)
Time: 19:46:38
(UTC+01:00)

YUBILEINY - Pass Details

Date: 06 November 2020
Orbit: 1478 x 1509 km, 82.5° (Epoch: 01 December)

Event Time Altitude Azimuth Distance (km) Brightness Sun altitude
Rises 22:00:00 0° 345° (NNW) 4,610 ? -53.9°
Reaches altitude 10° 22:03:09 10° 337° (NNW) 3,626 ? -54.3°
Enters shadow 22:06:15 22° 323° (NW) 2,783 ? -54.7°
